This is the latest recevied weather packets stored in our database for station/object KO4DYK. If no packets are shown the sender has not sent any weather packets the latest 1 day(s).
| Time | Temp. | Humidity | Pressure | Rain* | Wind** | Luminosity | Snow |
|---|---|---|---|---|---|---|---|
| 1777993748 | 15° C | 99% | 1015.3 hPa | 3.05 mm | 1.79 m/s, 180° | 41 W/m² | - |
| 1777993445 | 15° C | 98% | 1015.3 hPa | 4.83 mm | 1.34 m/s, 206° | 37 W/m² | - |
| 1777993144 | 15° C | 97% | 1015.2 hPa | 6.1 mm | 2.68 m/s, 172° | 39 W/m² | - |
| 1777992843 | 15.56° C | 96% | 1015 hPa | 4.83 mm | 0.89 m/s, 149° | 42 W/m² | - |
| 1777992540 | 15.56° C | 95% | 1015.7 hPa | 3.05 mm | 2.24 m/s, 174° | 28 W/m² | - |
| 1777992238 | 15.56° C | 93% | 1015.6 hPa | 4.32 mm | 0.89 m/s, 166° | 23 W/m² | - |
| 1777991935 | 16.11° C | 92% | 1015.9 hPa | 3.05 mm | 0.89 m/s, 181° | 20 W/m² | - |
| 1777991633 | 16.11° C | 90% | 1015.8 hPa | 1.78 mm | 1.34 m/s, 211° | 24 W/m² | - |
| 1777991329 | 16.11° C | 89% | 1015.7 hPa | 0 mm | 1.34 m/s, 188° | 23 W/m² | - |
| 1777991027 | 16.67° C | 88% | 1015.9 hPa | 0 mm | 1.79 m/s, 195° | 20 W/m² | - |
| 1777990724 | 16.67° C | 88% | 1015.8 hPa | 0 mm | 0.89 m/s, 168° | 20 W/m² | - |
| 1777990421 | 16.67° C | 87% | 1015.8 hPa | 0 mm | 1.79 m/s, 176° | 31 W/m² | - |
| 1777990118 | 16.67° C | 86% | 1015.7 hPa | 0 mm | 0.89 m/s, 165° | 27 W/m² | - |
| 1777989814 | 17.22° C | 85% | 1015.4 hPa | 0 mm | 0.45 m/s, 179° | 31 W/m² | - |
| 1777989512 | 17.22° C | 83% | 1015.8 hPa | 0 mm | 0.89 m/s, 214° | 24 W/m² | - |
| 1777989208 | 17.22° C | 83% | 1015.7 hPa | 0 mm | 0.89 m/s, 164° | 23 W/m² | - |
| 1777988904 | 17.22° C | 83% | 1015.6 hPa | 0 mm | 0.89 m/s, 191° | 32 W/m² | - |
| 1777988601 | 17.22° C | 82% | 1015.5 hPa | 0 mm | 1.34 m/s, 179° | 55 W/m² | - |
| 1777988297 | 17.22° C | 83% | 1015.4 hPa | 0 mm | 0.89 m/s, 162° | 55 W/m² | - |
| 1777987995 | 17.22° C | 82% | 1015.6 hPa | 0 mm | 2.68 m/s, 185° | 58 W/m² | - |
| 1777987690 | 17.22° C | 82% | 1015.8 hPa | 0 mm | 1.34 m/s, 157° | 69 W/m² | - |
| 1777987387 | 17.22° C | 82% | 1015.7 hPa | 0 mm | 1.34 m/s, 180° | 72 W/m² | - |
| 1777987085 | 17.22° C | 82% | 1015.7 hPa | 0 mm | 1.79 m/s, 163° | 66 W/m² | - |
| 1777986782 | 16.67° C | 82% | 1015.6 hPa | 0 mm | 1.79 m/s, 187° | 60 W/m² | - |
| 1777986479 | 16.67° C | 82% | 1015.8 hPa | 0 mm | 1.79 m/s, 194° | 62 W/m² | - |
* Rain latest hour (hover to see other rain measurements)
** Current wind speed in m/s (hover to see current wind gust speed)